Location: Cormont
(50.5693°N, 1.7416°E)
Time: 20:59:18
(UTC+00:00)

Cosmos 2058 Rocket - Pass Details

Date: 21 October 2019
Orbit: 611 x 639 km, 82.5° (Epoch: 14 November)

Event Time Altitude Azimuth Distance (km) Brightness Sun altitude
Rises 18:14:04 0° 202° (SSW) 2,867 6.8 -14.1°
Reaches altitude 10° 18:16:20 10° 208° (SSW) 1,966 6.0 -14.4°
Maximum altitude 18:20:34 51° 285° (WNW) 779 4.0 -15.1°
Drops below altitude 10° 18:24:51 10° 1° (N) 1,982 5.7 -15.8°
Sets 18:27:08 0° 7° (N) 2,894 6.5 -16.2°
